PWSweather.com
Personal Weather Stations
Station Observations
AF1HS
North Haven, CT 06473

North Haven, CT 06473

Lat: 41.3733, Lon: -72.8413

Elevation: 85.3

Station Type: Oregon Scientific WMR968

http://www.af1hs.com/wx/index.php

High Low Average
Temperature 55.8°F13.2°C 50.5°F10.3°C 53.2°F11.8°C
Dew Point 55.8°F13.2°C 40.6°F4.8°C 52.2°F11.2°C
Winds 7.3 mph 11.7 kmh Calm Calm 3.0 mph ESE4.8 kmh ESE
Wind Gusts 12.7 mph20.4 kmh -- 5.0 mph8.0 kmh
Humidity 100% 65% 97%
Pressure 30.09 in1019.0 mb 29.56 in1001.0 mb -
Precipitation 0.98 in24.9 mm - -
Hour Temp Dew Point Humidity Winds Wind Gusts Pressure Precip Precip Rate Daily Precip Total
12:00 AM 51.8°F11.0°C 37.0°F2.8°C 57% 2.1 mph ESE3.4 kmh ESE 4.9 mph7.9 kmh 30.12 in1020.0 mb - 0.00 in0.0 mm 0.00 in0.0 mm
12:10 AM 51.8°F11.0°C 37.5°F3.1°C 58% 0.6 mph E1.0 kmh E 5.8 mph9.3 kmh 30.12 in1020.0 mb - 0.00 in0.0 mm 0.00 in0.0 mm
12:20 AM 52.0°F11.1°C 38.5°F3.6°C 60% 1.2 mph ENE1.9 kmh ENE 3.1 mph5.0 kmh 30.12 in1020.0 mb - 0.00 in0.0 mm 0.00 in0.0 mm
12:30 AM 52.2°F11.2°C 39.1°F3.9°C 61% 1.4 mph E2.3 kmh E 5.8 mph9.3 kmh 30.12 in1020.0 mb - 0.00 in0.0 mm 0.00 in0.0 mm
12:40 AM 52.2°F11.2°C 39.5°F4.2°C 62% 4.1 mph ESE6.6 kmh ESE 6.3 mph10.1 kmh 30.12 in1020.0 mb - 0.00 in0.0 mm 0.00 in0.0 mm
12:50 AM 52.2°F11.2°C 40.3°F4.6°C 64% 3.4 mph E5.5 kmh E 5.8 mph9.3 kmh 30.09 in1019.0 mb - 0.00 in0.0 mm 0.00 in0.0 mm
01:00 AM 52.0°F11.1°C 40.6°F4.8°C 65% 3.0 mph ESE4.8 kmh ESE 4.0 mph6.4 kmh 30.09 in1019.0 mb - 0.00 in0.0 mm 0.00 in0.0 mm
01:10 AM 52.0°F11.1°C 41.8°F5.4°C 68% 4.0 mph E6.4 kmh E 5.8 mph9.3 kmh 30.09 in1019.0 mb - 0.00 in0.0 mm 0.00 in0.0 mm
01:20 AM 52.0°F11.1°C 42.1°F5.6°C 69% 4.3 mph E6.9 kmh E 6.7 mph10.8 kmh 30.09 in1019.0 mb - 0.00 in0.0 mm 0.00 in0.0 mm
01:31 AM 51.9°F11.1°C 42.1°F5.6°C 69% 4.4 mph E7.1 kmh E 5.8 mph9.3 kmh 30.09 in1019.0 mb - 0.00 in0.0 mm 0.00 in0.0 mm
01:40 AM 51.7°F10.9°C 42.3°F5.7°C 70% 3.7 mph E6.0 kmh E 5.8 mph9.3 kmh 30.09 in1019.0 mb - 0.00 in0.0 mm 0.00 in0.0 mm
01:50 AM 51.5°F10.8°C 42.4°F5.8°C 71% 3.4 mph ESE5.5 kmh ESE 5.4 mph8.7 kmh 30.08 in1018.6 mb - 0.00 in0.0 mm 0.00 in0.0 mm
02:00 AM 51.5°F10.8°C 42.7°F5.9°C 72% 4.5 mph ESE7.2 kmh ESE 10.1 mph16.3 kmh 30.06 in1017.9 mb - 0.00 in0.0 mm 0.00 in0.0 mm
02:10 AM 51.7°F10.9°C 43.4°F6.3°C 73% 4.9 mph E7.9 kmh E 8.3 mph13.4 kmh 30.06 in1017.9 mb - 0.00 in0.0 mm 0.00 in0.0 mm
02:20 AM 51.6°F10.9°C 43.5°F6.4°C 74% 5.4 mph E8.7 kmh E 8.7 mph14.0 kmh 30.05 in1017.6 mb - 0.00 in0.0 mm 0.00 in0.0 mm
02:30 AM 51.4°F10.8°C 43.4°F6.3°C 74% 5.1 mph ENE8.2 kmh ENE 10.5 mph16.9 kmh 30.03 in1016.9 mb - 0.00 in0.0 mm 0.00 in0.0 mm
02:40 AM 51.4°F10.8°C 44.1°F6.7°C 76% 5.2 mph E8.4 kmh E 8.3 mph13.4 kmh 30.03 in1016.9 mb - 0.00 in0.0 mm 0.00 in0.0 mm
02:51 AM 51.4°F10.8°C 44.1°F6.7°C 76% 3.6 mph E5.8 kmh E 5.8 mph9.3 kmh 30.03 in1016.9 mb - 0.00 in0.0 mm 0.00 in0.0 mm
03:00 AM 51.4°F10.8°C 44.8°F7.1°C 78% 5.4 mph E8.7 kmh E 8.3 mph13.4 kmh 30.03 in1016.9 mb - 0.00 in0.0 mm 0.00 in0.0 mm
03:11 AM 51.6°F10.9°C 45.3°F7.4°C 79% 5.5 mph SE8.9 kmh SE 8.7 mph14.0 kmh 30.03 in1016.9 mb - 0.00 in0.0 mm 0.00 in0.0 mm
03:20 AM 51.4°F10.8°C 45.1°F7.3°C 79% 5.2 mph E8.4 kmh E 5.4 mph8.7 kmh 30.01 in1016.3 mb - 0.00 in0.0 mm 0.00 in0.0 mm
03:30 AM 51.3°F10.7°C 46.3°F7.9°C 83% 4.7 mph ESE7.6 kmh ESE 8.0 mph12.9 kmh 30.00 in1015.9 mb - 0.00 in0.0 mm 0.00 in0.0 mm
03:40 AM 51.3°F10.7°C 49.0°F9.4°C 92% 7.3 mph ESE11.7 kmh ESE 12.3 mph19.8 kmh 30.00 in1015.9 mb - 0.00 in0.0 mm 0.00 in0.0 mm
03:50 AM 51.3°F10.7°C 49.3°F9.6°C 93% 4.7 mph ESE7.6 kmh ESE 10.1 mph16.3 kmh 30.00 in1015.9 mb - 0.00 in0.0 mm 0.00 in0.0 mm
04:00 AM 51.1°F10.6°C 50.3°F10.2°C 97% 6.2 mph SE10.0 kmh SE 8.7 mph14.0 kmh 30.00 in1015.9 mb - 0.00 in0.0 mm 0.00 in0.0 mm
04:10 AM 51.1°F10.6°C 50.0°F10.0°C 96% 3.8 mph E6.1 kmh E 5.4 mph8.7 kmh 30.00 in1015.9 mb - 0.00 in0.0 mm 0.00 in0.0 mm
04:21 AM 50.9°F10.5°C 50.9°F10.5°C 100% 4.8 mph E7.7 kmh E 7.6 mph12.2 kmh 30.00 in1015.9 mb - 0.00 in0.0 mm 0.00 in0.0 mm
04:30 AM 50.9°F10.5°C 50.9°F10.5°C 100% 4.2 mph E6.8 kmh E 7.2 mph11.6 kmh 30.00 in1015.9 mb - 0.00 in0.0 mm 0.00 in0.0 mm
04:40 AM 50.7°F10.4°C 50.7°F10.4°C 100% 3.4 mph E5.5 kmh E 6.3 mph10.1 kmh 30.00 in1015.9 mb - 0.00 in0.0 mm 0.00 in0.0 mm
04:50 AM 50.7°F10.4°C 50.7°F10.4°C 100% 3.8 mph E6.1 kmh E 8.0 mph12.9 kmh 30.00 in1015.9 mb - 0.00 in0.0 mm 0.00 in0.0 mm
05:00 AM 50.5°F10.3°C 50.5°F10.3°C 100% 4.6 mph E7.4 kmh E 8.0 mph12.9 kmh 30.00 in1015.9 mb - 0.00 in0.0 mm 0.00 in0.0 mm
05:10 AM 50.5°F10.3°C 50.5°F10.3°C 100% 2.9 mph E4.7 kmh E 4.0 mph6.4 kmh 29.97 in1014.9 mb - 0.00 in0.0 mm 0.00 in0.0 mm
05:20 AM 50.5°F10.3°C 50.5°F10.3°C 100% 4.1 mph ESE6.6 kmh ESE 6.3 mph10.1 kmh 29.97 in1014.9 mb - 0.00 in0.0 mm 0.00 in0.0 mm
05:30 AM 50.6°F10.3°C 50.6°F10.3°C 100% 5.7 mph E9.2 kmh E 8.7 mph14.0 kmh 29.97 in1014.9 mb - 0.00 in0.0 mm 0.00 in0.0 mm
05:41 AM 50.7°F10.4°C 50.7°F10.4°C 100% 4.8 mph ESE7.7 kmh ESE 8.0 mph12.9 kmh 29.97 in1014.9 mb - 0.00 in0.0 mm 0.00 in0.0 mm
05:50 AM 51.0°F10.6°C 51.0°F10.6°C 100% 5.7 mph E9.2 kmh E 12.7 mph20.4 kmh 29.97 in1014.9 mb - 0.00 in0.0 mm 0.00 in0.0 mm
06:00 AM 51.2°F10.7°C 51.2°F10.7°C 100% 3.8 mph E6.1 kmh E 5.4 mph8.7 kmh 29.97 in1014.9 mb - 0.00 in0.0 mm 0.00 in0.0 mm
06:10 AM 51.2°F10.7°C 51.2°F10.7°C 100% 3.7 mph E6.0 kmh E 5.8 mph9.3 kmh 29.97 in1014.9 mb - 0.00 in0.0 mm 0.00 in0.0 mm
06:20 AM 51.3°F10.7°C 51.3°F10.7°C 100% 3.8 mph E6.1 kmh E 5.8 mph9.3 kmh 29.97 in1014.9 mb - 0.00 in0.0 mm 0.00 in0.0 mm
06:31 AM 51.3°F10.7°C 51.3°F10.7°C 100% 3.9 mph E6.3 kmh E 5.8 mph9.3 kmh 29.97 in1014.9 mb - 0.00 in0.0 mm 0.00 in0.0 mm
06:40 AM 51.3°F10.7°C 51.3°F10.7°C 100% 4.3 mph E6.9 kmh E 6.3 mph10.1 kmh 29.97 in1014.9 mb - 0.00 in0.0 mm 0.00 in0.0 mm
06:50 AM 51.2°F10.7°C 51.2°F10.7°C 100% 4.9 mph E7.9 kmh E 5.8 mph9.3 kmh 29.95 in1014.2 mb - 0.00 in0.0 mm 0.00 in0.0 mm
07:00 AM 51.1°F10.6°C 51.1°F10.6°C 100% 1.8 mph E2.9 kmh E 4.0 mph6.4 kmh 29.94 in1013.9 mb - 0.00 in0.0 mm 0.00 in0.0 mm
07:10 AM 51.0°F10.6°C 51.0°F10.6°C 100% 4.4 mph E7.1 kmh E 7.6 mph12.2 kmh 29.94 in1013.9 mb - 0.00 in0.0 mm 0.00 in0.0 mm
07:20 AM 50.9°F10.5°C 50.9°F10.5°C 100% 3.5 mph E5.6 kmh E 7.6 mph12.2 kmh 29.94 in1013.9 mb - 0.00 in0.0 mm 0.00 in0.0 mm
07:30 AM 51.1°F10.6°C 51.1°F10.6°C 100% 4.3 mph E6.9 kmh E 8.0 mph12.9 kmh 29.94 in1013.9 mb - 0.00 in0.0 mm 0.00 in0.0 mm
07:40 AM 51.1°F10.6°C 51.1°F10.6°C 100% 4.0 mph ESE6.4 kmh ESE 6.3 mph10.1 kmh 29.94 in1013.9 mb - 0.00 in0.0 mm 0.00 in0.0 mm
07:50 AM 51.3°F10.7°C 51.3°F10.7°C 100% 0.1 mph E0.2 kmh E -- 29.94 in1013.9 mb - 0.00 in0.0 mm 0.00 in0.0 mm
08:00 AM 51.3°F10.7°C 51.3°F10.7°C 100% 3.9 mph E6.3 kmh E 5.8 mph9.3 kmh 29.94 in1013.9 mb - 0.00 in0.0 mm 0.00 in0.0 mm
08:10 AM 51.3°F10.7°C 51.3°F10.7°C 100% 4.3 mph E6.9 kmh E 8.0 mph12.9 kmh 29.91 in1012.9 mb - 0.04 in1.0 mm 0.04 in1.0 mm
08:20 AM 51.3°F10.7°C 51.3°F10.7°C 100% 3.9 mph ESE6.3 kmh ESE 8.7 mph14.0 kmh 29.91 in1012.9 mb - 0.00 in0.0 mm 0.04 in1.0 mm
08:30 AM 51.3°F10.7°C 51.3°F10.7°C 100% 1.4 mph E2.3 kmh E 5.8 mph9.3 kmh 29.91 in1012.9 mb - 0.00 in0.0 mm 0.04 in1.0 mm
08:40 AM 51.3°F10.7°C 51.3°F10.7°C 100% 3.1 mph E5.0 kmh E 6.3 mph10.1 kmh 29.91 in1012.9 mb - 0.00 in0.0 mm 0.04 in1.0 mm
08:50 AM 51.3°F10.7°C 51.3°F10.7°C 100% 3.5 mph E5.6 kmh E 5.4 mph8.7 kmh 29.91 in1012.9 mb - 0.00 in0.0 mm 0.04 in1.0 mm
09:01 AM 51.4°F10.8°C 51.4°F10.8°C 100% 5.4 mph ESE8.7 kmh ESE 8.3 mph13.4 kmh 29.91 in1012.9 mb - 0.04 in1.0 mm 0.08 in2.0 mm
09:10 AM 51.4°F10.8°C 51.4°F10.8°C 100% 5.9 mph ESE9.5 kmh ESE 10.1 mph16.3 kmh 29.91 in1012.9 mb - 0.04 in1.0 mm 0.08 in2.0 mm
09:20 AM 51.5°F10.8°C 51.5°F10.8°C 100% 5.2 mph E8.4 kmh E 8.3 mph13.4 kmh 29.90 in1012.5 mb - 0.00 in0.0 mm 0.08 in2.0 mm
09:30 AM 51.8°F11.0°C 51.8°F11.0°C 100% 4.3 mph E6.9 kmh E 4.9 mph7.9 kmh 29.88 in1011.9 mb - 0.00 in0.0 mm 0.08 in2.0 mm
09:41 AM 52.6°F11.4°C 52.6°F11.4°C 100% 2.1 mph E3.4 kmh E 5.8 mph9.3 kmh 29.88 in1011.9 mb - 0.00 in0.0 mm 0.08 in2.0 mm
09:50 AM 53.0°F11.7°C 53.0°F11.7°C 100% 3.3 mph E5.3 kmh E 5.8 mph9.3 kmh 29.88 in1011.9 mb - 0.00 in0.0 mm 0.08 in2.0 mm
10:00 AM 53.1°F11.7°C 53.1°F11.7°C 100% 4.1 mph ESE6.6 kmh ESE 5.8 mph9.3 kmh 29.88 in1011.9 mb - 0.00 in0.0 mm 0.08 in2.0 mm
10:10 AM 52.9°F11.6°C 52.9°F11.6°C 100% 2.8 mph E4.5 kmh E 8.7 mph14.0 kmh 29.88 in1011.9 mb - 0.00 in0.0 mm 0.08 in2.0 mm
10:20 AM 53.1°F11.7°C 53.1°F11.7°C 100% 2.2 mph E3.5 kmh E 4.9 mph7.9 kmh 29.88 in1011.9 mb - 0.00 in0.0 mm 0.08 in2.0 mm
10:40 AM 54.0°F12.2°C 54.0°F12.2°C 100% 3.6 mph E5.8 kmh E 7.6 mph12.2 kmh 29.86 in1011.2 mb - 0.00 in0.0 mm 0.08 in2.0 mm
10:50 AM 54.2°F12.3°C 54.2°F12.3°C 100% 3.6 mph E5.8 kmh E 6.3 mph10.1 kmh 29.86 in1011.2 mb - 0.00 in0.0 mm 0.08 in2.0 mm
11:00 AM 54.1°F12.3°C 54.1°F12.3°C 100% 5.1 mph E8.2 kmh E 10.1 mph16.3 kmh 29.86 in1011.2 mb - 0.00 in0.0 mm 0.08 in2.0 mm
11:10 AM 54.1°F12.3°C 54.1°F12.3°C 100% 6.1 mph SE9.8 kmh SE 8.3 mph13.4 kmh 29.86 in1011.2 mb - 0.04 in1.0 mm 0.12 in3.0 mm
11:20 AM 54.1°F12.3°C 54.1°F12.3°C 100% 4.6 mph E7.4 kmh E 7.6 mph12.2 kmh 29.86 in1011.2 mb - 0.04 in1.0 mm 0.16 in4.1 mm
11:30 AM 54.1°F12.3°C 54.1°F12.3°C 100% 4.4 mph E7.1 kmh E 5.8 mph9.3 kmh 29.86 in1011.2 mb - 0.00 in0.0 mm 0.16 in4.1 mm
11:40 AM 54.1°F12.3°C 54.1°F12.3°C 100% 4.0 mph E6.4 kmh E 5.8 mph9.3 kmh 29.84 in1010.5 mb - 0.00 in0.0 mm 0.16 in4.1 mm
11:50 AM 54.1°F12.3°C 54.1°F12.3°C 100% 6.4 mph E10.3 kmh E 12.7 mph20.4 kmh 29.82 in1009.8 mb - 0.00 in0.0 mm 0.16 in4.1 mm
12:00 PM 54.2°F12.3°C 54.2°F12.3°C 100% 4.4 mph ENE7.1 kmh ENE 8.7 mph14.0 kmh 29.82 in1009.8 mb - 0.00 in0.0 mm 0.16 in4.1 mm
12:10 PM 54.4°F12.4°C 54.4°F12.4°C 100% 4.3 mph ESE6.9 kmh ESE 8.3 mph13.4 kmh 29.82 in1009.8 mb - 0.00 in0.0 mm 0.16 in4.1 mm
12:20 PM 54.4°F12.4°C 54.4°F12.4°C 100% 4.9 mph ESE7.9 kmh ESE 8.0 mph12.9 kmh 29.81 in1009.5 mb - 0.00 in0.0 mm 0.16 in4.1 mm
12:31 PM 54.3°F12.4°C 54.3°F12.4°C 100% 4.5 mph E7.2 kmh E 10.1 mph16.3 kmh 29.80 in1009.1 mb - 0.00 in0.0 mm 0.16 in4.1 mm
12:40 PM 55.0°F12.8°C 55.0°F12.8°C 100% 4.5 mph E7.2 kmh E 8.0 mph12.9 kmh 29.80 in1009.1 mb - 0.00 in0.0 mm 0.16 in4.1 mm
12:51 PM 55.0°F12.8°C 55.0°F12.8°C 100% 2.3 mph ESE3.7 kmh ESE 8.7 mph14.0 kmh 29.80 in1009.1 mb - 0.04 in1.0 mm 0.20 in5.1 mm
01:01 PM 54.5°F12.5°C 54.5°F12.5°C 100% 2.9 mph E4.7 kmh E 6.3 mph10.1 kmh 29.80 in1009.1 mb - 0.04 in1.0 mm 0.24 in6.1 mm
01:11 PM 54.5°F12.5°C 54.5°F12.5°C 100% 4.3 mph E6.9 kmh E 6.3 mph10.1 kmh 29.78 in1008.5 mb - 0.00 in0.0 mm 0.24 in6.1 mm
01:21 PM 54.8°F12.7°C 54.8°F12.7°C 100% 3.6 mph ESE5.8 kmh ESE 5.4 mph8.7 kmh 29.77 in1008.1 mb - 0.04 in1.0 mm 0.28 in7.1 mm
01:31 PM 55.1°F12.8°C 55.1°F12.8°C 100% 6.1 mph E9.8 kmh E 8.7 mph14.0 kmh 29.77 in1008.1 mb - 0.00 in0.0 mm 0.28 in7.1 mm
01:41 PM 55.0°F12.8°C 55.0°F12.8°C 100% 3.0 mph E4.8 kmh E 4.9 mph7.9 kmh 29.77 in1008.1 mb - 0.00 in0.0 mm 0.32 in8.1 mm
01:50 PM 55.0°F12.8°C 55.0°F12.8°C 100% 6.5 mph E10.5 kmh E 8.7 mph14.0 kmh 29.75 in1007.5 mb - 0.04 in1.0 mm 0.32 in8.1 mm
02:00 PM 55.0°F12.8°C 55.0°F12.8°C 100% 3.6 mph E5.8 kmh E 5.8 mph9.3 kmh 29.74 in1007.1 mb - 0.00 in0.0 mm 0.32 in8.1 mm
02:10 PM 54.7°F12.6°C 54.7°F12.6°C 100% 4.5 mph ENE7.2 kmh ENE 9.6 mph15.4 kmh 29.74 in1007.1 mb - 0.00 in0.0 mm 0.32 in8.1 mm
02:20 PM 54.7°F12.6°C 54.7°F12.6°C 100% 7.0 mph SE11.3 kmh SE 10.1 mph16.3 kmh 29.74 in1007.1 mb - 0.00 in0.0 mm 0.32 in8.1 mm
02:31 PM 54.7°F12.6°C 54.7°F12.6°C 100% 3.8 mph ESE6.1 kmh ESE 6.3 mph10.1 kmh 29.74 in1007.1 mb - 0.00 in0.0 mm 0.32 in8.1 mm
02:41 PM 54.7°F12.6°C 54.7°F12.6°C 100% 5.5 mph ESE8.9 kmh ESE 7.6 mph12.2 kmh 29.71 in1006.1 mb - 0.00 in0.0 mm 0.32 in8.1 mm
02:50 PM 55.1°F12.8°C 55.1°F12.8°C 100% 5.4 mph E8.7 kmh E 8.7 mph14.0 kmh 29.71 in1006.1 mb - 0.04 in1.0 mm 0.35 in8.9 mm
03:01 PM 55.5°F13.1°C 55.5°F13.1°C 100% 4.5 mph E7.2 kmh E 7.6 mph12.2 kmh 29.71 in1006.1 mb - 0.00 in0.0 mm 0.35 in8.9 mm
03:11 PM 55.6°F13.1°C 55.6°F13.1°C 100% 4.3 mph ESE6.9 kmh ESE 8.0 mph12.9 kmh 29.71 in1006.1 mb - 0.00 in0.0 mm 0.35 in8.9 mm
03:21 PM 55.8°F13.2°C 55.8°F13.2°C 100% 4.5 mph E7.2 kmh E 5.4 mph8.7 kmh 29.70 in1005.8 mb - 0.04 in1.0 mm 0.39 in9.9 mm
03:30 PM 55.8°F13.2°C 55.8°F13.2°C 100% 5.9 mph ESE9.5 kmh ESE 8.7 mph14.0 kmh 29.68 in1005.1 mb - 0.00 in0.0 mm 0.39 in9.9 mm
03:41 PM 55.8°F13.2°C 55.8°F13.2°C 100% 5.4 mph E8.7 kmh E 8.7 mph14.0 kmh 29.68 in1005.1 mb - 0.00 in0.0 mm 0.39 in9.9 mm
04:00 PM 55.1°F12.8°C 55.1°F12.8°C 100% 5.1 mph E8.2 kmh E 7.6 mph12.2 kmh 29.68 in1005.1 mb - 0.00 in0.0 mm 0.39 in9.9 mm
04:20 PM 54.9°F12.7°C 54.9°F12.7°C 100% 1.8 mph ENE2.9 kmh ENE 6.3 mph10.1 kmh 29.68 in1005.1 mb - 0.00 in0.0 mm 0.39 in9.9 mm
04:31 PM 54.7°F12.6°C 54.7°F12.6°C 100% 2.3 mph NE3.7 kmh NE 3.6 mph5.8 kmh 29.68 in1005.1 mb - 0.00 in0.0 mm 0.39 in9.9 mm
04:41 PM 54.5°F12.5°C 54.5°F12.5°C 100% 2.8 mph E4.5 kmh E 5.4 mph8.7 kmh 29.65 in1004.1 mb - 0.00 in0.0 mm 0.39 in9.9 mm
04:50 PM 54.3°F12.4°C 54.3°F12.4°C 100% Calm Calm 3.1 mph5.0 kmh 29.66 in1004.4 mb - 0.00 in0.0 mm 0.39 in9.9 mm
05:01 PM 54.4°F12.4°C 54.4°F12.4°C 100% 0.2 mph ENE0.3 kmh ENE 5.4 mph8.7 kmh 29.68 in1005.1 mb - 0.00 in0.0 mm 0.39 in9.9 mm
05:11 PM 54.3°F12.4°C 54.3°F12.4°C 100% 0.4 mph ENE0.6 kmh ENE 3.6 mph5.8 kmh 29.65 in1004.1 mb - 0.00 in0.0 mm 0.39 in9.9 mm
05:20 PM 54.4°F12.4°C 54.4°F12.4°C 100% 0.2 mph NE0.3 kmh NE 4.5 mph7.2 kmh 29.65 in1004.1 mb - 0.00 in0.0 mm 0.39 in9.9 mm
05:31 PM 54.6°F12.6°C 54.6°F12.6°C 100% 0.2 mph E0.3 kmh E 4.9 mph7.9 kmh 29.65 in1004.1 mb - 0.00 in0.0 mm 0.39 in9.9 mm
05:41 PM 54.7°F12.6°C 54.7°F12.6°C 100% Calm Calm -- 29.65 in1004.1 mb - 0.00 in0.0 mm 0.39 in9.9 mm
06:01 PM 54.9°F12.7°C 54.9°F12.7°C 100% Calm Calm 2.7 mph4.3 kmh 29.62 in1003.0 mb - 0.00 in0.0 mm 0.39 in9.9 mm
06:10 PM 54.7°F12.6°C 54.7°F12.6°C 100% Calm Calm 2.7 mph4.3 kmh 29.64 in1003.7 mb - 0.00 in0.0 mm 0.39 in9.9 mm
06:20 PM 54.7°F12.6°C 54.7°F12.6°C 100% Calm Calm -- 29.65 in1004.1 mb - 0.00 in0.0 mm 0.39 in9.9 mm
06:31 PM 54.7°F12.6°C 54.7°F12.6°C 100% Calm Calm -- 29.65 in1004.1 mb - 0.00 in0.0 mm 0.39 in9.9 mm
06:41 PM 54.7°F12.6°C 54.7°F12.6°C 100% Calm Calm -- 29.62 in1003.0 mb - 0.00 in0.0 mm 0.39 in9.9 mm
06:50 PM 54.5°F12.5°C 54.5°F12.5°C 100% Calm Calm -- 29.62 in1003.0 mb - 0.00 in0.0 mm 0.39 in9.9 mm
07:01 PM 54.7°F12.6°C 54.7°F12.6°C 100% Calm Calm -- 29.62 in1003.0 mb - 0.00 in0.0 mm 0.39 in9.9 mm
07:10 PM 54.5°F12.5°C 54.5°F12.5°C 100% 0.1 mph ENE0.2 kmh ENE 4.9 mph7.9 kmh 29.62 in1003.0 mb - 0.00 in0.0 mm 0.39 in9.9 mm
07:20 PM 54.5°F12.5°C 54.5°F12.5°C 100% 0.8 mph ESE1.3 kmh ESE 5.8 mph9.3 kmh 29.62 in1003.0 mb - 0.00 in0.0 mm 0.39 in9.9 mm
07:31 PM 54.5°F12.5°C 54.5°F12.5°C 100% 0.2 mph E0.3 kmh E 4.9 mph7.9 kmh 29.62 in1003.0 mb - 0.00 in0.0 mm 0.39 in9.9 mm
07:40 PM 54.3°F12.4°C 54.3°F12.4°C 100% 0.1 mph E0.2 kmh E 5.4 mph8.7 kmh 29.62 in1003.0 mb - 0.00 in0.0 mm 0.39 in9.9 mm
07:51 PM 54.3°F12.4°C 54.3°F12.4°C 100% 0.2 mph ESE0.3 kmh ESE 3.1 mph5.0 kmh 29.62 in1003.0 mb - 0.00 in0.0 mm 0.39 in9.9 mm
08:10 PM 54.3°F12.4°C 54.3°F12.4°C 100% Calm Calm -- 29.62 in1003.0 mb - 0.08 in2.0 mm 0.47 in11.9 mm
08:21 PM 54.3°F12.4°C 54.3°F12.4°C 100% Calm Calm -- 29.62 in1003.0 mb - 0.00 in0.0 mm 0.47 in11.9 mm
08:30 PM 54.3°F12.4°C 54.3°F12.4°C 100% Calm Calm -- 29.62 in1003.0 mb - 0.04 in1.0 mm 0.51 in13.0 mm
08:41 PM 54.3°F12.4°C 54.3°F12.4°C 100% Calm Calm -- 29.62 in1003.0 mb - 0.04 in1.0 mm 0.51 in13.0 mm
09:01 PM 54.5°F12.5°C 54.5°F12.5°C 100% Calm Calm -- 29.62 in1003.0 mb - 0.00 in0.0 mm 0.51 in13.0 mm
09:11 PM 54.7°F12.6°C 54.7°F12.6°C 100% Calm Calm -- 29.62 in1003.0 mb - 0.00 in0.0 mm 0.51 in13.0 mm
09:20 PM 54.7°F12.6°C 54.7°F12.6°C 100% Calm Calm -- 29.62 in1003.0 mb - 0.00 in0.0 mm 0.51 in13.0 mm
09:31 PM 54.9°F12.7°C 54.9°F12.7°C 100% Calm Calm -- 29.62 in1003.0 mb - 0.00 in0.0 mm 0.51 in13.0 mm
09:40 PM 54.9°F12.7°C 54.9°F12.7°C 100% Calm Calm -- 29.62 in1003.0 mb - 0.04 in1.0 mm 0.55 in14.0 mm
09:50 PM 55.0°F12.8°C 55.0°F12.8°C 100% Calm Calm -- 29.62 in1003.0 mb - 0.00 in0.0 mm 0.55 in14.0 mm
10:01 PM 55.0°F12.8°C 55.0°F12.8°C 100% Calm Calm -- 29.62 in1003.0 mb - 0.04 in1.0 mm 0.59 in15.0 mm
10:10 PM 54.9°F12.7°C 55.0°F12.8°C 100% Calm Calm -- 29.59 in1002.0 mb - 0.00 in0.0 mm 0.59 in15.0 mm
10:20 PM 55.0°F12.8°C 55.0°F12.8°C 100% Calm Calm -- 29.59 in1002.0 mb - 0.00 in0.0 mm 0.59 in15.0 mm
10:31 PM 55.2°F12.9°C 55.2°F12.9°C 100% Calm Calm -- 29.59 in1002.0 mb - 0.12 in3.0 mm 0.71 in18.0 mm
10:41 PM 55.2°F12.9°C 55.2°F12.9°C 100% Calm Calm -- 29.59 in1002.0 mb - 0.12 in3.0 mm 0.79 in20.1 mm
10:51 PM 55.2°F12.9°C 55.2°F12.9°C 100% Calm Calm -- 29.59 in1002.0 mb - 0.00 in0.0 mm 0.79 in20.1 mm
11:00 PM 54.9°F12.7°C 54.9°F12.7°C 100% Calm Calm -- 29.59 in1002.0 mb - 0.04 in1.0 mm 0.83 in21.1 mm
11:20 PM 54.3°F12.4°C 54.3°F12.4°C 100% Calm Calm -- 29.59 in1002.0 mb - 0.00 in0.0 mm 0.83 in21.1 mm
11:30 PM 54.2°F12.3°C 54.2°F12.3°C 100% Calm Calm -- 29.59 in1002.0 mb - 0.16 in4.1 mm 0.98 in24.9 mm
11:41 PM 54.1°F12.3°C 54.1°F12.3°C 100% Calm Calm -- 29.59 in1002.0 mb - 0.04 in1.0 mm 0.98 in24.9 mm
11:51 PM 54.1°F12.3°C 54.1°F12.3°C 100% Calm Calm -- 29.59 in1002.0 mb - 0.00 in0.0 mm 0.98 in24.9 mm